Estación de Odessa
Ultimos registro cada 15 minutos 29
| N° | Estación | Fecha / Hora | Temperatura | Humedad | Lluvia | Velocidad | Dirección | Radiación | Presion |
| 29 | Odessa | 08-05-2026 07:00 | 2 | 94 | 0 | 0,9 | 79 | 0 | 1024,3 |
| 28 | Odessa | 08-05-2026 06:45 | 1,7 | 93 | 0 | 0,4 | 67 | 0 | 1024,4 |
| 27 | Odessa | 08-05-2026 06:30 | 1,8 | 93 | 0 | 0 | 97 | 0 | 1024,8 |
| 26 | Odessa | 08-05-2026 06:15 | 2,2 | 93 | 0 | 0 | 219 | 0 | 1024,8 |
| 25 | Odessa | 08-05-2026 06:00 | 2,3 | 93 | 0 | 0 | 56 | 0 | 1024,8 |
| 24 | Odessa | 08-05-2026 05:45 | 2,4 | 93 | 0 | 0 | 56 | 0 | 1024,4 |
| 23 | Odessa | 08-05-2026 05:30 | 2,1 | 93 | 0 | 0,4 | 52 | 0 | 1024,7 |
| 22 | Odessa | 08-05-2026 05:15 | 2,2 | 93 | 0 | 0 | 177 | 0 | 1024,7 |
| 21 | Odessa | 08-05-2026 05:00 | 2,2 | 93 | 0 | 0 | 177 | 0 | 1024,8 |
| 20 | Odessa | 08-05-2026 04:45 | 2,3 | 92 | 0 | 0 | 177 | 0 | 1024,8 |
| 19 | Odessa | 08-05-2026 04:30 | 2,4 | 92 | 0 | 0 | 177 | 0 | 1024,5 |
| 18 | Odessa | 08-05-2026 04:15 | 2,6 | 92 | 0 | 0 | 177 | 0 | 1024,6 |
| 17 | Odessa | 08-05-2026 04:00 | 2,9 | 91 | 0 | 0 | 177 | 0 | 1024,7 |
| 16 | Odessa | 08-05-2026 03:45 | 3,4 | 91 | 0 | 0 | 177 | 0 | 1024,9 |
| 15 | Odessa | 08-05-2026 03:30 | 4,1 | 91 | 0 | 0 | 177 | 0 | 1024,9 |
| 14 | Odessa | 08-05-2026 03:15 | 4,4 | 92 | 0 | 0 | 177 | 0 | 1025,6 |
| 13 | Odessa | 08-05-2026 03:00 | 4,2 | 90 | 0 | 0 | 118 | 0 | 1025,6 |
| 12 | Odessa | 08-05-2026 02:45 | 4,9 | 91 | 0 | 0 | 209 | 0 | 1025,5 |
| 11 | Odessa | 08-05-2026 02:30 | 5,1 | 90 | 0 | 0 | 209 | 0 | 1025,6 |
| 10 | Odessa | 08-05-2026 02:15 | 5,5 | 90 | 0 | 0 | 209 | 0 | 1025,7 |
| 9 | Odessa | 08-05-2026 02:00 | 5,6 | 90 | 0 | 0 | 228 | 0 | 1025,9 |
| 8 | Odessa | 08-05-2026 01:45 | 6 | 90 | 0 | 0 | 208 | 0 | 1025,8 |
| 7 | Odessa | 08-05-2026 01:30 | 5,9 | 90 | 0 | 0 | 182 | 0 | 1026 |
| 6 | Odessa | 08-05-2026 01:15 | 6,2 | 89 | 0 | 0 | 135 | 0 | 1025,9 |
| 5 | Odessa | 08-05-2026 01:00 | 6,6 | 89 | 0 | 0 | 136 | 0 | 1026,1 |
| 4 | Odessa | 08-05-2026 00:45 | 6,7 | 89 | 0 | 0,4 | 218 | 0 | 1026,2 |
| 3 | Odessa | 08-05-2026 00:30 | 6,9 | 89 | 0 | 0,4 | 209 | 0 | 1026,4 |
| 2 | Odessa | 08-05-2026 00:15 | 7 | 89 | 0 | 0 | 224 | 0 | 1026,7 |
| 1 | Odessa | 08-05-2026 00:00 | 7,4 | 88 | 0 | 0 | 213 | 0 | 1026,6 |